Location: ????????
(48.4751°N, 37.6926°E)
Time: 12:14:50
(UTC+00:00)

Meteor 1-21 Rocket - Pass Details

Date: 20 January 2021
Orbit: 834 x 906 km, 81.2° (Epoch: 26 February)

Event Time Altitude Azimuth Distance (km) Brightness Sun altitude
Rises 16:28:56 0° 193° (SSW) 3,371 7.6 -22.7°
Reaches altitude 10° 16:31:19 10° 195° (SSW) 2,439 6.8 -23.1°
Maximum altitude 16:36:50 80° 282° (WNW) 855 4.2 -24.1°
Drops below altitude 10° 16:42:26 10° 10° (N) 2,467 6.5 -25.0°
Enters shadow 16:42:58 - 10° (N) 2,669 6.7 -25.1°
